Wind_Speed
20 19 19 18 16 15 15 14 14 13 12 12 11 11 11 10 11 11 10 8 8 7 7 6 6 6 7 8 8 9 9 9 9 9 10 10 10 8 7 7 6 5
21 21 20 19 18 17 16 15 15 14 14 13 12 12 12 12 11 11 11 10 9 8 8 7 7 7 7 7 8 9 9 9 8 8 9 10 10 9 9 8 7 7
20 21 21 20 19 19 17 16 15 15 14 14 14 13 12 13 13 12 12 11 10 10 9 8 8 7 7 7 8 8 9 9 9 8 9 10 10 9 9 9 8 8
20 20 22 21 19 18 18 17 16 16 15 15 15 14 13 13 13 13 13 12 11 11 11 10 9 8 8 7 7 8 9 9 9 10 10 9 10 10 9 9 9 9
21 20 21 22 21 20 19 18 18 17 16 16 15 15 15 15 15 15 14 13 13 12 12 11 11 10 9 8 8 8 9 9 9 10 10 9 9 9 9 9 10 10
22 21 21 21 22 22 21 20 19 18 17 17 17 16 16 17 16 16 15 15 13 13 12 12 12 11 11 10 9 9 9 9 9 10 11 10 10 9 9 9 10 11
22 21 21 21 22 24 23 21 20 20 19 18 18 18 17 17 17 17 17 16 15 14 14 13 13 13 13 12 11 10 10 10 10 11 11 11 11 11 11 11 11 12
23 22 21 21 21 23 24 23 22 22 22 20 19 19 19 18 18 18 18 17 16 16 16 15 15 15 15 14 13 12 11 11 12 13 12 12 13 12 12 12 13 13
24 23 22 22 21 22 23 23 23 23 23 23 21 20 20 21 19 18 19 19 18 18 18 18 18 17 16 16 15 14 13 13 13 13 13 12 13 13 13 13 13 13
26 24 23 23 22 22 22 23 23 22 23 25 24 21 20 21 21 20 20 21 21 20 20 20 20 19 18 18 17 17 16 15 15 14 14 14 14 14 14 14 14 13
26 25 24 24 23 23 23 23 23 23 22 24 24 23 22 21 22 23 22 22 23 22 21 21 21 21 20 19 18 18 17 17 16 16 16 15 15 15 15 15 15 15
24 25 25 25 24 24 23 23 23 23 23 23 23 24 23 22 22 23 24 25 25 24 23 23 22 22 22 22 20 19 19 18 17 17 16 16 16 16 16 16 16 16
22 24 25 25 25 25 24 24 24 24 23 23 23 24 24 24 23 23 25 27 27 26 25 24 24 24 24 24 23 21 20 19 18 17 17 17 17 17 16 17 17 17
21 22 22 23 24 25 25 25 24 24 25 24 23 24 25 25 25 24 25 26 27 28 27 25 26 26 26 26 26 24 22 20 20 19 19 18 18 18 17 17 18 18
19 20 20 21 22 24 25 26 26 25 25 25 25 25 25 25 25 25 25 25 26 28 29 28 27 27 28 28 28 28 26 23 22 22 21 20 19 19 18 18 18 18
17 18 19 20 21 22 24 26 26 26 26 26 27 26 26 25 26 26 26 26 26 27 29 29 29 28 29 30 30 30 29 27 25 23 23 22 21 20 20 19 19 19
16 18 20 20 21 22 23 24 25 26 26 27 28 28 28 28 27 27 27 27 27 27 28 29 30 30 31 32 32 31 31 30 28 26 25 25 24 23 22 21 20 20
17 17 19 22 22 22 23 24 24 24 26 27 28 29 29 30 29 29 29 28 28 28 28 29 30 31 33 35 35 33 32 32 31 28 26 26 26 25 25 23 22 21
20 20 19 20 21 21 21 22 23 24 25 26 27 28 28 30 32 31 31 31 30 30 29 29 29 31 33 36 37 36 34 33 32 30 28 27 27 27 26 26 26 24
18 21 22 20 19 19 20 21 22 23 24 24 25 26 27 29 31 32 32 33 34 33 32 30 30 30 32 34 36 37 36 35 34 32 30 28 29 28 28 27 28 27
17 16 18 20 20 19 20 21 21 22 23 23 23 23 25 27 29 30 31 33 35 36 35 34 32 31 32 33 34 36 36 36 36 36 34 32 30 30 30 30 29 28
20 18 17 18 19 20 20 21 21 22 22 22 22 23 23 25 26 28 29 30 32 34 35 35 34 33 34 35 35 35 35 35 35 37 37 37 35 33 34 33 33 33
20 22 22 21 18 17 18 19 21 22 21 20 22 24 24 24 24 24 24 26 28 30 31 33 33 33 34 36 38 38 37 37 37 36 38 39 40 39 36 35 36 38
14 18 22 23 22 19 16 16 18 21 22 21 21 21 23 25 27 26 24 23 24 26 28 30 30 30 31 34 37 38 38 39 39 38 38 39 40 42 41 39 38 39
10 12 14 17 19 18 17 18 21 20 19 20 21 21 23 25 27 28 28 26 25 25 26 27 27 26 27 30 34 36 37 37 37 38 39 39 40 42 43 43 43 42
11 13 12 14 16 16 16 19 24 24 19 17 18 21 24 26 26 27 28 29 29 27 26 26 27 26 24 26 28 32 34 35 36 37 39 40 41 41 42 44 45 46
Wind_Direction
213 212 210 206 201 200 203 205 205 204 204 199 199 202 197 196 193 190 198 202 201 206 208 202 191 190 192 191 195 197 200 201 204 210 210 210 209 203 211 217 217 229
210 212 212 208 205 203 202 204 205 205 207 202 199 202 201 202 201 194 198 204 202 206 213 209 199 197 194 193 195 193 201 204 197 206 214 212 209 205 212 219 223 229
208 211 211 208 207 207 204 204 205 204 207 206 202 202 201 204 207 203 203 206 202 203 213 214 206 204 201 197 195 192 202 206 194 201 216 214 211 211 214 219 224 229
208 209 211 208 205 207 206 205 206 205 205 207 207 205 201 202 208 209 209 209 206 205 211 214 209 208 207 201 200 198 204 209 199 200 212 214 212 214 215 218 221 224
211 209 210 208 204 205 206 206 208 207 206 207 208 208 207 205 207 209 212 213 212 211 213 214 212 211 211 206 204 205 208 213 212 208 210 212 214 215 215 219 222 220
214 211 211 210 206 205 206 207 209 209 208 208 207 208 211 212 210 209 211 214 214 213 213 216 217 214 214 214 209 210 212 212 217 220 214 210 213 214 212 219 225 224
217 214 213 212 209 209 208 208 210 210 209 208 209 209 209 215 218 212 211 213 211 211 210 214 219 216 214 218 216 215 216 211 214 222 220 215 216 214 210 215 224 226
219 217 215 214 210 211 211 210 212 213 210 207 209 211 209 212 218 216 213 213 211 212 210 209 217 221 215 216 221 221 219 214 218 224 221 217 219 219 214 215 223 226
217 215 217 217 211 210 212 211 212 215 215 211 210 212 213 213 214 215 217 218 216 217 216 211 214 221 219 214 218 223 221 215 218 227 228 222 222 223 221 221 224 228
217 213 214 215 211 210 212 211 211 213 216 218 214 212 215 217 215 212 216 222 222 221 225 223 218 221 223 218 217 222 223 218 215 221 226 226 226 226 226 227 227 228
217 213 210 211 211 211 212 212 212 212 214 218 217 213 214 217 219 215 213 220 225 225 228 230 226 225 226 223 220 221 224 222 220 221 223 225 227 226 225 228 229 229
215 214 210 211 212 213 214 214 214 214 214 216 217 215 213 215 219 219 217 220 226 228 229 231 231 229 229 227 223 221 224 224 223 225 227 227 229 230 227 227 229 230
213 214 213 212 213 214 214 216 217 216 216 216 217 217 216 215 216 220 223 225 228 229 228 229 232 231 231 231 226 220 221 225 224 224 228 229 229 231 230 229 230 231
214 215 215 213 214 216 216 216 218 219 218 218 218 219 218 218 218 218 223 226 229 230 228 226 231 233 232 232 229 224 220 222 224 223 224 227 230 229 229 230 231 231
214 215 217 215 215 217 218 218 218 219 221 220 220 221 221 221 221 220 222 224 226 230 230 225 226 231 233 232 230 228 224 222 224 225 223 224 227 230 229 230 231 231
222 217 216 216 216 216 218 221 220 219 222 222 222 223 224 224 224 223 223 224 224 228 231 228 224 226 232 234 233 231 229 226 224 226 227 225 225 227 229 230 231 232
231 225 220 216 218 218 219 222 224 222 222 224 224 225 225 226 226 225 225 225 226 226 228 230 227 226 230 236 236 234 232 231 228 226 228 229 228 228 229 230 231 233
237 234 228 222 221 223 223 225 227 227 224 223 224 225 226 226 226 226 226 226 228 228 228 229 231 230 232 236 240 238 235 233 232 229 229 231 232 232 232 233 233 233
247 240 236 232 227 225 226 227 229 230 228 226 225 225 226 227 228 229 229 228 228 229 229 230 232 234 236 238 241 242 240 236 233 230 230 233 234 235 235 235 235 235
266 250 241 241 236 228 227 227 227 231 232 230 228 227 227 228 230 232 233 233 233 232 231 232 233 235 240 243 245 245 243 240 237 233 232 233 235 236 236 237 238 238
282 275 256 247 243 238 235 233 230 232 235 234 233 232 231 231 233 234 236 238 240 239 236 235 234 234 238 243 247 249 248 245 241 238 236 236 236 237 238 238 239 238
265 276 275 266 255 246 243 243 239 238 241 241 240 239 238 238 238 237 238 240 242 242 241 239 238 237 237 240 244 248 250 250 247 243 240 239 238 239 240 240 240 240
259 263 268 273 272 263 258 255 249 246 247 247 247 247 247 248 247 245 245 244 243 243 243 242 241 239 240 242 244 246 249 251 252 251 247 244 242 241 241 241 242 244
276 271 267 270 273 274 278 276 263 254 251 251 254 254 253 253 251 250 250 248 247 248 247 247 246 244 243 245 247 248 250 252 254 255 254 251 248 245 243 242 243 245
313 301 289 287 285 282 283 279 270 264 257 252 252 253 252 252 250 249 248 245 245 248 248 249 251 250 249 250 251 252 253 253 254 256 256 255 253 250 248 246 246 246
343 332 329 333 325 312 299 281 271 270 268 260 256 255 254 254 252 252 251 247 245 246 248 250 252 252 255 258 258 258 259 258 256 256 256 256 255 254 252 251 249 249
Height
1573 1575 1577 1578 1580 1582 1583 1584 1585 1587 1588 1589 1590 1591 1591 1592 1593 1594 1595 1595 1596 1596 1597 1597 1598 1599 1599 1600 1601 1601 1602 1603 1603 1604 1605 1605 1606 1607 1609 1609 1610 1610
1571 1573 1575 1577 1578 1580 1582 1583 1584 1586 1587 1588 1589 1590 1591 1591 1592 1593 1594 1595 1595 1596 1596 1597 1598 1598 1599 1599 1600 1601 1601 1602 1603 1604 1604 1605 1606 1607 1608 1609 1609 1609
1569 1571 1573 1575 1576 1578 1580 1582 1583 1584 1586 1587 1588 1589 1590 1591 1591 1592 1593 1594 1594 1595 1596 1596 1597 1598 1598 1599 1600 1600 1601 1601 1602 1603 1603 1604 1605 1606 1607 1608 1608 1609
1567 1569 1571 1573 1575 1577 1579 1580 1582 1583 1584 1586 1586 1587 1589 1590 1590 1591 1592 1592 1593 1594 1595 1595 1596 1597 1597 1598 1599 1600 1600 1600 1601 1602 1603 1603 1604 1604 1606 1607 1607 1608
1566 1567 1569 1571 1573 1575 1577 1578 1580 1581 1583 1584 1585 1586 1587 1588 1589 1590 1590 1591 1592 1593 1594 1594 1595 1596 1596 1597 1598 1599 1599 1600 1600 1601 1602 1602 1603 1603 1604 1605 1606 1607
1564 1566 1567 1569 1571 1573 1575 1576 1578 1579 1581 1582 1584 1585 1586 1586 1587 1588 1589 1590 1591 1592 1593 1594 1594 1595 1595 1596 1597 1598 1598 1599 1599 1600 1601 1601 1602 1602 1604 1604 1605 1605
1562 1564 1565 1567 1569 1570 1572 1574 1576 1577 1579 1581 1582 1583 1584 1585 1585 1586 1588 1588 1590 1591 1592 1593 1593 1594 1595 1595 1596 1596 1597 1598 1598 1599 1599 1600 1601 1601 1602 1603 1603 1603
1560 1562 1563 1565 1567 1568 1570 1572 1573 1575 1576 1578 1580 1581 1582 1583 1584 1585 1586 1587 1588 1589 1590 1591 1592 1592 1593 1594 1594 1595 1596 1597 1597 1598 1598 1599 1599 1600 1600 1601 1601 1602
1558 1560 1561 1563 1565 1566 1568 1570 1571 1572 1574 1575 1577 1579 1580 1581 1582 1583 1584 1585 1586 1587 1587 1589 1590 1590 1591 1592 1593 1594 1594 1595 1596 1596 1597 1597 1598 1598 1599 1599 1600 1600
1555 1557 1559 1561 1562 1564 1566 1567 1569 1571 1572 1573 1575 1577 1578 1579 1580 1581 1582 1582 1583 1585 1585 1586 1587 1588 1589 1590 1591 1592 1592 1593 1594 1595 1595 1596 1596 1597 1597 1598 1598 1599
1552 1554 1557 1558 1560 1562 1563 1565 1567 1569 1570 1570 1572 1574 1576 1577 1577 1578 1580 1580 1581 1582 1583 1584 1585 1586 1587 1588 1589 1590 1591 1591 1592 1593 1594 1594 1595 1595 1596 1596 1597 1597
1550 1551 1554 1555 1557 1559 1561 1563 1565 1566 1568 1568 1570 1571 1573 1575 1575 1575 1577 1577 1578 1579 1580 1581 1582 1583 1584 1586 1587 1588 1589 1590 1590 1591 1592 1592 1593 1593 1594 1594 1595 1595
1548 1549 1551 1553 1554 1556 1558 1560 1562 1564 1566 1566 1567 1569 1570 1572 1573 1573 1574 1574 1575 1577 1578 1579 1580 1581 1582 1583 1584 1586 1587 1588 1589 1590 1590 1591 1591 1592 1592 1593 1593 1594
1545 1547 1549 1550 1552 1553 1555 1557 1559 1561 1563 1564 1565 1566 1567 1569 1570 1571 1571 1572 1573 1574 1575 1577 1577 1578 1579 1580 1582 1583 1585 1586 1587 1588 1589 1589 1590 1590 1591 1591 1592 1592
1544 1545 1546 1547 1549 1550 1552 1553 1555 1558 1559 1561 1562 1563 1565 1566 1568 1569 1570 1570 1570 1571 1572 1574 1575 1575 1576 1577 1579 1580 1582 1584 1584 1585 1586 1587 1588 1588 1589 1589 1590 1590
1543 1543 1543 1544 1545 1547 1548 1550 1551 1554 1556 1557 1559 1560 1562 1564 1565 1566 1567 1568 1568 1568 1569 1571 1572 1573 1573 1574 1576 1577 1579 1581 1582 1583 1584 1585 1586 1586 1587 1587 1587 1588
1541 1541 1540 1540 1541 1542 1544 1546 1547 1550 1552 1553 1555 1557 1559 1560 1562 1563 1564 1565 1566 1566 1567 1567 1568 1570 1570 1571 1573 1575 1576 1578 1580 1581 1581 1582 1583 1583 1584 1585 1585 1586
1539 1539 1538 1537 1537 1538 1540 1541 1543 1545 1547 1549 1551 1553 1554 1556 1558 1560 1561 1562 1564 1564 1565 1565 1565 1566 1567 1568 1570 1572 1574 1576 1577 1578 1579 1580 1580 1580 1581 1581 1582 1583
1539 1538 1537 1536 1535 1535 1536 1537 1539 1541 1542 1545 1547 1549 1551 1552 1553 1555 1557 1558 1560 1561 1562 1563 1563 1563 1564 1565 1567 1568 1571 1573 1575 1576 1577 1577 1578 1578 1578 1579 1579 1580
1539 1537 1535 1534 1533 1533 1534 1534 1536 1537 1539 1541 1543 1545 1547 1548 1550 1551 1553 1554 1556 1557 1559 1560 1561 1561 1561 1562 1564 1565 1567 1570 1572 1573 1574 1575 1575 1575 1576 1576 1576 1577
1538 1537 1534 1533 1532 1532 1532 1532 1534 1535 1537 1539 1541 1544 1545 1546 1547 1548 1549 1550 1552 1553 1555 1556 1558 1559 1559 1559 1560 1562 1564 1567 1569 1570 1571 1572 1572 1572 1573 1573 1574 1574
1535 1536 1535 1532 1531 1530 1530 1531 1533 1534 1536 1538 1540 1542 1543 1544 1545 1546 1547 1548 1549 1550 1551 1552 1554 1556 1557 1558 1559 1560 1562 1564 1565 1567 1568 1568 1569 1569 1570 1570 1570 1571
1530 1532 1532 1532 1530 1529 1529 1529 1531 1533 1535 1536 1538 1540 1541 1541 1543 1544 1546 1547 1548 1548 1549 1550 1551 1553 1554 1555 1557 1558 1559 1561 1562 1563 1564 1564 1565 1566 1566 1567 1567 1567
1528 1529 1530 1530 1529 1528 1528 1528 1530 1532 1533 1534 1536 1538 1539 1540 1541 1542 1544 1545 1546 1547 1548 1548 1550 1552 1553 1553 1554 1556 1557 1558 1559 1560 1561 1561 1561 1562 1563 1563 1563 1564
1530 1530 1530 1529 1528 1527 1527 1528 1529 1530 1531 1532 1534 1535 1535 1536 1537 1538 1540 1541 1542 1543 1545 1546 1548 1551 1552 1552 1553 1554 1555 1557 1558 1558 1558 1558 1558 1559 1559 1560 1560 1560
1531 1530 1529 1527 1526 1525 1526 1527 1528 1528 1529 1530 1532 1533 1533 1532 1533 1535 1536 1536 1538 1539 1540 1541 1544 1547 1550 1551 1552 1553 1554 1555 1556 1556 1555 1556 1556 1556 1556 1556 1556 1557